Weather History for Du Bois, PA

Change the Weather History Date:

Wednesday, March 12, 2014

  Actual Average Record
Temperature  
Mean Temperature 33 °F 33 °F  
Max Temperature 46 °F 43 °F 72 °F (1990)
Min Temperature 19 °F 24 °F 2 °F (1984)
Degree Days  
Heating Degree Days 32 32  
Month to date heating degree days 439 402  
Since 1 July heating degree days 5522 5425  
Cooling Degree Days 0 0  
Month to date cooling degree days 0 0  
Year to date cooling degree days 0 0  
Moisture  
Dew Point 30 °F    
Average Humidity 73    
Maximum Humidity 93    
Minimum Humidity 53    
Precipitation  
Precipitation 0.83 in 0.10 in 6.99 in (1998)
Month to date precipitation 0.92 1.20  
Sea Level Pressure  
Sea Level Pressure 29.31 in    
Wind  
Wind Speed 13 mph (NNE)    
Max Wind Speed 30 mph    
Max Gust Speed 41 mph    
Visibility 4 miles    
Events Fog , Rain , Snow    
T = Trace of Precipitation, MM = Missing Value Source: NWS Daily Summary

Daily Weather History Graph

Daily Weather History Graph

Search for Another Location

Airport:

Trip Planner

Search our weather history database for the weather conditions in past years. The results will help you decide how hot, cold, wet, or windy it might be!

Date:

Astronomy

Mar. 12, 2014 Rise Set
Actual Time 7:32 AM EDT 7:18 PM EDT
Civil Twilight 7:04 AM EDT 7:46 PM EDT
Nautical Twilight 6:32 AM EDT 8:18 PM EDT
Astronomical Twilight 6:00 AM EDT 8:50 PM EDT
Moon 3:46 PM EDT (3/12) 5:04 AM EDT (3/12)
Length of Visible Light 12h 41m
Length of Day
11h 46m
Waxing Gibbous, 85% of the Moon is Illuminated
Mar 12
Waxing Gibbous
Mar 16
Full
Mar 23
Last Quarter
Mar 30
New
Apr 7
First Quarter

Hourly Weather History & Observations

Time (EDT) Temp. Windchill Dew Point Humidity Pressure Visibility Wind Dir Wind Speed Gust Speed Precip Events Conditions
12:56 AM 45.0 °F 41.2 °F 30.9 °F 58% 29.64 in 10.0 mi NNE 6.9 mph - N/A   Overcast
1:56 AM 46.0 °F 41.4 °F 30.9 °F 56% 29.59 in 10.0 mi ENE 9.2 mph - N/A   Overcast
2:56 AM 44.1 °F 40.1 °F 32.0 °F 63% 29.58 in 10.0 mi NE 6.9 mph - N/A   Mostly Cloudy
3:56 AM 43.0 °F 37.7 °F 32.0 °F 65% 29.53 in 10.0 mi NE 9.2 mph - N/A   Scattered Clouds
4:56 AM 42.1 °F 36.6 °F 33.1 °F 70% 29.49 in 10.0 mi East 9.2 mph - N/A   Mostly Cloudy
5:56 AM 43.0 °F 37.2 °F 33.1 °F 68% 29.45 in 10.0 mi East 10.4 mph - N/A   Overcast
6:56 AM 42.1 °F 36.1 °F 34.0 °F 73% 29.41 in 10.0 mi East 10.4 mph - 0.00 in   Overcast
7:56 AM 43.0 °F 37.2 °F 35.1 °F 74% 29.37 in 10.0 mi East 10.4 mph - 0.01 in Rain Light Rain
8:56 AM 42.1 °F 37.1 °F 36.0 °F 79% 29.36 in 5.0 mi East 8.1 mph - 0.02 in Rain Light Rain
9:37 AM 41.0 °F 36.4 °F 37.0 °F 86% 29.33 in 2.5 mi NE 6.9 mph - 0.11 in Rain Light Rain
9:46 AM 41.0 °F 35.2 °F 37.0 °F 86% 29.32 in 4.0 mi ENE 9.2 mph - 0.14 in Rain Light Rain
9:56 AM 41.0 °F 35.8 °F 37.0 °F 86% 29.33 in 4.0 mi ENE 8.1 mph - 0.16 in Rain Light Rain
10:17 AM 39.9 °F 32.9 °F 37.0 °F 89% 29.29 in 2.0 mi East 11.5 mph - 0.06 in Rain Light Rain
10:26 AM 39.9 °F 33.4 °F 37.9 °F 93% 29.28 in 1.8 mi East 10.4 mph - 0.10 in Rain Light Rain
10:34 AM 39.9 °F 32.9 °F 37.9 °F 93% 29.26 in 2.0 mi East 11.5 mph - 0.11 in Rain Light Rain
10:36 AM 39.9 °F 32.9 °F 37.9 °F 93% 29.26 in 1.8 mi East 11.5 mph - 0.11 in Rain Light Rain
10:53 AM 41.0 °F 34.3 °F 37.4 °F 87% 29.23 in 2.0 mi East 11.5 mph - 0.13 in Rain Light Rain
10:54 AM 41.0 °F 34.3 °F 37.9 °F 89% 29.24 in 2.5 mi East 11.5 mph - 0.13 in Rain Light Rain
10:58 AM 41.0 °F 34.7 °F 37.9 °F 89% 29.22 in 3.0 mi East 10.4 mph - 0.01 in Rain Light Rain
11:13 AM 41.0 °F 34.3 °F 37.9 °F 89% 29.21 in 2.5 mi East 11.5 mph - 0.04 in Rain Light Rain
11:26 AM 41.0 °F 35.8 °F 37.9 °F 89% 29.20 in 3.0 mi East 8.1 mph - 0.07 in Rain Light Rain
11:30 AM 41.0 °F 35.2 °F 37.9 °F 89% 29.19 in 2.5 mi East 9.2 mph - 0.08 in Rain Light Rain
11:48 AM 41.0 °F 35.2 °F 37.9 °F 89% 29.18 in 1.8 mi East 9.2 mph - 0.12 in Rain Light Rain
11:56 AM 41.0 °F 36.4 °F 37.9 °F 89% 29.18 in 1.8 mi ENE 6.9 mph - 0.14 in Rain Light Rain
12:00 PM 41.0 °F 36.4 °F 37.9 °F 89% 29.17 in 2.0 mi East 6.9 mph - 0.00 in Rain Light Rain
12:11 PM 41.0 °F 35.2 °F 37.9 °F 89% 29.16 in 1.0 mi East 9.2 mph - 0.05 in Rain Light Rain
12:56 PM 41.0 °F 34.7 °F 39.0 °F 93% 29.11 in 1.0 mi East 10.4 mph - 0.13 in Rain Light Rain
1:29 PM 42.1 °F 38.4 °F 39.0 °F 89% 29.09 in 0.5 mi ENE 5.8 mph - 0.08 in Fog , Rain Light Rain
1:53 PM 42.8 °F 40.1 °F 39.2 °F 87% 29.07 in 0.2 mi ENE 4.6 mph - 0.10 in Fog Fog
1:56 PM 42.1 °F 40.2 °F 39.9 °F 92% 29.08 in 0.2 mi NE 3.5 mph - 0.10 in Fog Fog
2:06 PM 42.1 °F 39.2 °F 39.0 °F 89% 29.07 in 0.5 mi NNE 4.6 mph - 0.01 in Fog , Rain Light Rain
2:27 PM 41.0 °F 35.2 °F 39.0 °F 93% 29.06 in 0.2 mi North 9.2 mph - 0.03 in Fog , Rain Light Rain
2:38 PM 41.0 °F 35.2 °F 39.0 °F 93% 29.05 in 1.0 mi North 9.2 mph - 0.04 in Rain Light Rain
2:47 PM 41.0 °F 35.2 °F 39.0 °F 93% 29.06 in 3.0 mi North 9.2 mph - 0.05 in Rain Light Rain
2:56 PM 41.0 °F 35.8 °F 37.9 °F 89% 29.08 in 3.0 mi North 8.1 mph - 0.07 in Rain Light Rain
3:14 PM 39.9 °F 30.8 °F 37.0 °F 89% 29.05 in 5.0 mi NNE 18.4 mph 24.2 mph 0.05 in Rain Light Rain
3:56 PM 34.0 °F 23.0 °F 30.0 °F 85% 29.10 in 10.0 mi NNE 18.4 mph - 0.06 in   Overcast
4:18 PM 32.0 °F 19.5 °F 27.0 °F 82% 29.09 in 10.0 mi North 21.9 mph 31.1 mph N/A   Overcast
4:56 PM 28.0 °F 14.9 °F 23.0 °F 81% 29.22 in 2.5 mi North 19.6 mph 31.1 mph 0.00 in Snow Light Snow
5:08 PM 27.0 °F 12.2 °F 21.9 °F 81% 29.19 in 1.5 mi North 24.2 mph 36.8 mph 0.00 in Snow Light Snow
5:23 PM 26.1 °F 10.7 °F 19.9 °F 78% 29.23 in 2.0 mi North 25.3 mph 39.1 mph 0.00 in Snow Light Snow
5:40 PM 25.0 °F 9.2 °F 21.0 °F 85% 29.26 in 1.5 mi North 25.3 mph 32.2 mph 0.00 in Snow Light Snow
5:52 PM 24.8 °F 9.6 °F 19.4 °F 80% 29.28 in 0.8 mi North 23.0 mph 38.0 mph 0.00 in Snow Light Snow
5:56 PM 24.1 °F 10.1 °F 19.0 °F 81% 29.32 in 0.5 mi North 18.4 mph 32.2 mph 0.00 in Snow Snow
6:08 PM 24.1 °F 10.1 °F 19.9 °F 84% 29.30 in 0.2 mi NNW 18.4 mph 29.9 mph 0.00 in Fog , Snow Light Snow
6:18 PM 23.0 °F 7.6 °F 18.0 °F 81% 29.31 in 0.5 mi North 21.9 mph 35.7 mph 0.01 in Snow Snow
6:39 PM 23.0 °F 9.2 °F 19.0 °F 85% 29.34 in 0.2 mi North 17.3 mph 25.3 mph 0.01 in Fog , Snow Light Snow
6:56 PM 21.9 °F 7.3 °F 16.0 °F 78% 29.43 in 1.2 mi NNW 18.4 mph 33.4 mph 0.01 in Snow Light Snow
7:01 PM 21.9 °F 7.8 °F 15.1 °F 75% 29.40 in 2.0 mi NNW 17.3 mph 41.4 mph 0.00 in Snow Light Snow
7:10 PM 21.9 °F 8.2 °F 15.1 °F 75% 29.40 in 7.0 mi North 16.1 mph 31.1 mph 0.00 in   Overcast
7:17 PM 21.9 °F 6.2 °F 15.1 °F 75% 29.41 in 4.0 mi NNW 21.9 mph 33.4 mph 0.00 in Snow Light Snow
7:31 PM 21.9 °F 10.4 °F 15.1 °F 75% 29.43 in 2.0 mi NNW 11.5 mph 23.0 mph 0.00 in Snow Light Snow
7:38 PM 21.0 °F 5.7 °F 16.0 °F 81% 29.44 in 1.0 mi NNW 19.6 mph 26.5 mph 0.00 in Snow Light Snow
7:56 PM 19.9 °F 3.5 °F 12.9 °F 74% 29.51 in 1.5 mi NW 21.9 mph 28.8 mph 0.00 in Snow Light Snow
8:08 PM 19.0 °F 4.5 °F 12.0 °F 74% 29.47 in 3.0 mi NNW 16.1 mph 28.8 mph 0.00 in Snow Light Snow
8:23 PM 19.0 °F 2.0 °F 12.0 °F 74% 29.49 in 7.0 mi NNW 23.0 mph 29.9 mph 0.00 in Snow Light Snow
8:48 PM - - - N/A% 29.52 in 5.0 mi NW 16.1 mph 32.2 mph 0.00 in   Unknown
8:56 PM - - - N/A% 29.53 in 5.0 mi NNW 24.2 mph 33.4 mph 0.00 in   Unknown
9:56 PM - - - N/A% 29.56 in 3.0 mi NNW 15.0 mph 29.9 mph 0.00 in Rain Light Rain
10:56 PM - - - N/A% 29.59 in 5.0 mi NW 15.0 mph 26.5 mph 0.00 in Rain Light Rain
11:56 PM - - - N/A% 29.61 in 3.0 mi NNW 19.6 mph 26.5 mph 0.00 in Rain Light Rain